Location: Brooklin
(36.0503°N, 86.6147°W)
Time: 22:50:27
(UTC+00:00)

Daily predictions for brighter satellites

Satellite Brightness Start Highest point End
(mag) Time Altitude Azimuth Time Altitude Azimuth Time Altitude Azimuth
Abrixas rocket 4.3 23:37:17 10° SSE 23:38:22 11° SE 23:39:28 10° ESE
ASTEX 1 3.8 23:36:41 10° NNE 23:41:23 43° E 23:46:06 10° SSE
Cosmos 968 Rocket 4.0 23:37:17 10° N 23:42:10 37° ENE 23:47:01 10° SE
Cosmos 2278 Rocket 3.6 23:41:55 10° SE 23:45:30 17° E 23:49:04 10° ENE
SKYMED 2 3.5 23:41:24 10° NNE 23:45:45 69° ESE 23:50:03 10° S
YAOGAN 1 3.3 23:43:01 10° SE 23:46:50 32° ENE 23:50:41 10° N
Shenzhou-11 Module 2.7 23:44:40 10° W 23:47:18 40° NNW 23:49:57 10° NE
Cosmos 1844 3.7 23:42:29 10° S 23:48:06 69° ESE 23:53:49 10° NNE
Cosmos 1992 Rocket 4.0 23:44:44 10° SSW 23:49:57 84° ESE 23:55:12 10° NNE
Cosmos 2285 Rocket 4.2 23:44:44 10° N 23:51:00 51° ENE 23:57:11 10° SE
OAO 2 Rocket 3.5 23:46:08 10° WSW 23:51:24 75° S 23:56:17 12° E
SL-4 R/B 3.5 23:49:07 10° NNW 23:51:55 19° NNE 23:54:12 12° ENE
Cosmos 1503 Rocket 4.2 23:48:29 10° N 23:53:27 46° ENE 23:58:23 10° SE
